QPF
0.07 0.08 0.09 0.11 0.12 0.10 0.09 0.12 0.16 0.14 0.13 0.15 0.19 0.17 0.11 0.08 0.08 0.10 0.11 0.08 0.06 0.05 0.05 0.06 0.08 0.10 0.12 0.11 0.08 0.07 0.07 0.07 0.08 0.06 0.05 0.07 0.07 0.08 0.08 0.10 0.10 0.10 0.09
0.05 0.07 0.08 0.08 0.08 0.08 0.07 0.10 0.13 0.12 0.11 0.11 0.16 0.17 0.12 0.09 0.09 0.08 0.09 0.08 0.06 0.05 0.04 0.06 0.07 0.07 0.08 0.07 0.06 0.05 0.05 0.06 0.06 0.05 0.05 0.05 0.07 0.09 0.10 0.11 0.09 0.08 0.08
0.04 0.06 0.07 0.08 0.07 0.07 0.07 0.08 0.10 0.10 0.11 0.09 0.12 0.15 0.13 0.08 0.06 0.06 0.06 0.06 0.06 0.04 0.05 0.07 0.07 0.06 0.07 0.07 0.05 0.04 0.04 0.03 0.04 0.04 0.05 0.04 0.05 0.06 0.08 0.11 0.09 0.08 0.07
0.03 0.05 0.07 0.09 0.07 0.07 0.07 0.08 0.08 0.09 0.10 0.10 0.09 0.09 0.10 0.08 0.08 0.09 0.07 0.05 0.04 0.04 0.05 0.05 0.06 0.07 0.07 0.06 0.06 0.06 0.05 0.04 0.03 0.03 0.04 0.04 0.03 0.04 0.04 0.08 0.09 0.08 0.07
0.03 0.04 0.07 0.08 0.06 0.08 0.08 0.07 0.07 0.08 0.09 0.09 0.07 0.05 0.06 0.07 0.08 0.07 0.06 0.05 0.04 0.04 0.05 0.04 0.05 0.05 0.07 0.10 0.11 0.11 0.08 0.05 0.04 0.04 0.04 0.03 0.03 0.04 0.04 0.04 0.05 0.06 0.07
0.04 0.05 0.06 0.05 0.05 0.07 0.07 0.06 0.07 0.06 0.06 0.06 0.05 0.05 0.05 0.05 0.06 0.06 0.05 0.05 0.05 0.03 0.03 0.03 0.05 0.06 0.06 0.08 0.09 0.09 0.08 0.07 0.05 0.04 0.04 0.03 0.02 0.02 0.02 0.02 0.03 0.05 0.05
0.05 0.08 0.07 0.04 0.04 0.04 0.03 0.03 0.04 0.05 0.05 0.04 0.04 0.04 0.03 0.04 0.05 0.05 0.05 0.05 0.05 0.03 0.02 0.02 0.04 0.05 0.06 0.06 0.08 0.09 0.09 0.09 0.07 0.06 0.05 0.04 0.04 0.04 0.03 0.03 0.05 0.05 0.04
0.04 0.06 0.07 0.05 0.04 0.03 0.02 0.02 0.03 0.04 0.03 0.03 0.04 0.04 0.05 0.06 0.04 0.03 0.04 0.04 0.05 0.05 0.03 0.03 0.04 0.04 0.04 0.04 0.05 0.06 0.06 0.07 0.07 0.07 0.06 0.03 0.03 0.04 0.04 0.05 0.06 0.05 0.04
0.04 0.04 0.04 0.03 0.03 0.03 0.03 0.03 0.03 0.03 0.02 0.03 0.04 0.04 0.05 0.06 0.05 0.04 0.04 0.03 0.03 0.04 0.04 0.04 0.03 0.04 0.04 0.05 0.06 0.07 0.08 0.09 0.10 0.11 0.07 0.03 0.03 0.04 0.04 0.05 0.07 0.06 0.05
0.04 0.04 0.03 0.03 0.03 0.04 0.05 0.05 0.04 0.03 0.03 0.03 0.03 0.03 0.05 0.07 0.06 0.05 0.05 0.04 0.04 0.04 0.03 0.03 0.03 0.03 0.04 0.05 0.05 0.05 0.05 0.05 0.05 0.08 0.08 0.06 0.06 0.04 0.04 0.04 0.05 0.06 0.05
0.04 0.03 0.03 0.03 0.03 0.04 0.05 0.05 0.04 0.03 0.03 0.03 0.04 0.04 0.04 0.06 0.08 0.08 0.07 0.06 0.04 0.04 0.03 0.03 0.02 0.02 0.04 0.04 0.02 0.02 0.02 0.03 0.03 0.03 0.06 0.08 0.07 0.05 0.04 0.03 0.04 0.05 0.05
0.04 0.03 0.03 0.04 0.04 0.04 0.04 0.05 0.05 0.04 0.03 0.04 0.04 0.03 0.05 0.07 0.09 0.12 0.09 0.05 0.05 0.03 0.03 0.04 0.04 0.03 0.03 0.03 0.01 0.01 0.01 0.01 0.03 0.03 0.04 0.07 0.08 0.06 0.04 0.03 0.04 0.04 0.04
0.03 0.02 0.02 0.02 0.03 0.04 0.04 0.05 0.05 0.05 0.04 0.04 0.04 0.03 0.03 0.04 0.06 0.10 0.08 0.04 0.03 0.02 0.03 0.04 0.05 0.06 0.05 0.03 0.03 0.03 0.02 0.02 0.03 0.03 0.02 0.04 0.09 0.09 0.05 0.03 0.03 0.03 0.03
0.03 0.02 0.02 0.02 0.02 0.02 0.02 0.03 0.03 0.03 0.04 0.04 0.03 0.03 0.02 0.02 0.02 0.04 0.04 0.03 0.02 0.02 0.02 0.03 0.04 0.06 0.05 0.04 0.05 0.05 0.05 0.05 0.04 0.03 0.02 0.03 0.06 0.10 0.07 0.05 0.04 0.03 0.03
0.02 0.02 0.02 0.02 0.02 0.01 0.02 0.03 0.03 0.04 0.03 0.04 0.03 0.03 0.03 0.02 0.02 0.02 0.03 0.03 0.03 0.02 0.02 0.02 0.03 0.04 0.04 0.04 0.04 0.02 0.03 0.04 0.04 0.04 0.03 0.03 0.04 0.09 0.09 0.07 0.05 0.04 0.03
0.02 0.03 0.03 0.02 0.02 0.02 0.03 0.03 0.03 0.03 0.03 0.02 0.02 0.03 0.03 0.02 0.02 0.01 0.02 0.03 0.04 0.04 0.03 0.03 0.03 0.03 0.02 0.01 0.02 0.02 0.03 0.04 0.04 0.04 0.03 0.03 0.04 0.07 0.10 0.09 0.07 0.05 0.03
0.03 0.03 0.03 0.03 0.03 0.02 0.03 0.03 0.02 0.03 0.03 0.03 0.02 0.02 0.03 0.03 0.02 0.01 0.01 0.03 0.05 0.06 0.04 0.03 0.04 0.02 0.01 0.01 0.01 0.01 0.02 0.03 0.03 0.04 0.03 0.02 0.02 0.04 0.08 0.08 0.05 0.04 0.02
0.02 0.02 0.02 0.03 0.02 0.02 0.02 0.03 0.03 0.03 0.03 0.03 0.04 0.03 0.02 0.03 0.03 0.02 0.02 0.02 0.04 0.06 0.04 0.04 0.03 0.02 0.01 0.01 0.00 0.01 0.01 0.01 0.02 0.03 0.02 0.02 0.02 0.02 0.04 0.07 0.05 0.02 0.02
0.02 0.02 0.02 0.03 0.02 0.02 0.02 0.02 0.02 0.02 0.02 0.03 0.04 0.03 0.02 0.02 0.02 0.03 0.02 0.02 0.02 0.03 0.03 0.02 0.02 0.01 0.01 0.01 0.01 0.01 0.01 0.01 0.02 0.03 0.03 0.03 0.02 0.01 0.02 0.05 0.05 0.02 0.01
0.03 0.03 0.03 0.03 0.02 0.02 0.02 0.02 0.02 0.02 0.01 0.02 0.02 0.02 0.02 0.02 0.02 0.02 0.02 0.02 0.02 0.03 0.02 0.02 0.01 0.01 0.01 0.01 0.01 0.01 0.01 0.01 0.02 0.02 0.02 0.02 0.02 0.02 0.02 0.03 0.04 0.03 0.01
0.02 0.03 0.03 0.02 0.02 0.02 0.02 0.02 0.02 0.02 0.02 0.01 0.02 0.02 0.02 0.01 0.01 0.02 0.02 0.02 0.03 0.04 0.03 0.03 0.01 0.01 0.01 0.01 0.01 0.01 0.01 0.02 0.02 0.02 0.03 0.02 0.02 0.01 0.01 0.02 0.03 0.03 0.02
0.02 0.03 0.03 0.03 0.03 0.02 0.02 0.02 0.02 0.02 0.02 0.01 0.02 0.02 0.02 0.01 0.01 0.01 0.01 0.02 0.04 0.05 0.05 0.05 0.02 0.02 0.02 0.01 0.01 0.01 0.01 0.02 0.02 0.02 0.03 0.03 0.02 0.02 0.02 0.02 0.02 0.02 0.02
0.02 0.03 0.03 0.04 0.04 0.03 0.02 0.02 0.02 0.03 0.03 0.02 0.02 0.03 0.02 0.01 0.01 0.01 0.01 0.01 0.02 0.03 0.03 0.03 0.03 0.03 0.02 0.02 0.03 0.02 0.02 0.02 0.02 0.02 0.03 0.03 0.03 0.03 0.03 0.02 0.02 0.02 0.02
0.02 0.02 0.02 0.03 0.03 0.03 0.03 0.02 0.02 0.02 0.02 0.02 0.01 0.02 0.02 0.01 0.01 0.01 0.01 0.01 0.01 0.01 0.01 0.02 0.03 0.02 0.02 0.02 0.03 0.02 0.02 0.02 0.02 0.01 0.02 0.03 0.03 0.04 0.04 0.04 0.03 0.03 0.02
0.02 0.03 0.03 0.03 0.03 0.03 0.04 0.03 0.03 0.02 0.02 0.02 0.01 0.01 0.01 0.01 0.01 0.01 0.00 0.01 0.01 0.01 0.01 0.01 0.01 0.01 0.01 0.01 0.02 0.02 0.02 0.02 0.02 0.02 0.01 0.02 0.03 0.04 0.04 0.05 0.05 0.04 0.03
0.03 0.03 0.04 0.04 0.05 0.05 0.08 0.07 0.05 0.03 0.03 0.02 0.01 0.01 0.00 0.00 0.01 0.01 0.00 0.01 0.01 0.01 0.01 0.01 0.01 0.01 0.01 0.01 0.01 0.02 0.02 0.02 0.02 0.02 0.01 0.02 0.02 0.03 0.04 0.05 0.05 0.05 0.04
MSLP
1009.45 1009.95 1010.41 1010.83 1011.24 1011.64 1012.06 1012.48 1012.90 1013.31 1013.70 1014.05 1014.37 1014.66 1014.91 1015.15 1015.37 1015.59 1015.81 1016.02 1016.23 1016.43 1016.62 1016.80 1016.96 1017.10 1017.23 1017.34 1017.45 1017.54 1017.64 1017.73 1017.82 1017.90 1017.97 1018.04 1018.10 1018.15 1018.20 1018.27 1018.35 1018.45 1018.58
1010.29 1010.75 1011.17 1011.57 1011.96 1012.36 1012.76 1013.17 1013.59 1014.00 1014.39 1014.76 1015.08 1015.36 1015.60 1015.80 1015.97 1016.11 1016.25 1016.38 1016.53 1016.68 1016.84 1017.01 1017.19 1017.36 1017.52 1017.68 1017.81 1017.93 1018.03 1018.10 1018.16 1018.19 1018.20 1018.20 1018.18 1018.17 1018.16 1018.19 1018.24 1018.34 1018.48
1011.08 1011.49 1011.88 1012.26 1012.64 1013.02 1013.42 1013.83 1014.26 1014.68 1015.09 1015.47 1015.81 1016.10 1016.33 1016.50 1016.63 1016.71 1016.77 1016.83 1016.90 1017.00 1017.12 1017.27 1017.44 1017.63 1017.82 1018.00 1018.15 1018.28 1018.38 1018.44 1018.46 1018.44 1018.39 1018.31 1018.23 1018.15 1018.09 1018.06 1018.09 1018.17 1018.31
1011.75 1012.12 1012.48 1012.84 1013.21 1013.59 1013.99 1014.40 1014.84 1015.27 1015.71 1016.11 1016.48 1016.79 1017.03 1017.20 1017.30 1017.35 1017.37 1017.38 1017.39 1017.43 1017.50 1017.62 1017.76 1017.93 1018.12 1018.29 1018.45 1018.57 1018.65 1018.69 1018.67 1018.61 1018.51 1018.38 1018.23 1018.09 1017.97 1017.90 1017.88 1017.94 1018.06
1012.27 1012.60 1012.93 1013.28 1013.63 1014.01 1014.41 1014.83 1015.27 1015.72 1016.17 1016.60 1016.99 1017.34 1017.61 1017.82 1017.94 1018.01 1018.02 1018.01 1017.99 1017.99 1018.02 1018.08 1018.18 1018.30 1018.44 1018.58 1018.70 1018.79 1018.84 1018.84 1018.79 1018.69 1018.55 1018.38 1018.19 1018.01 1017.84 1017.72 1017.66 1017.66 1017.74
1012.64 1012.93 1013.24 1013.57 1013.92 1014.29 1014.68 1015.09 1015.52 1015.97 1016.42 1016.87 1017.30 1017.68 1018.02 1018.29 1018.48 1018.61 1018.68 1018.70 1018.69 1018.68 1018.67 1018.67 1018.70 1018.75 1018.81 1018.87 1018.92 1018.95 1018.95 1018.92 1018.83 1018.71 1018.55 1018.36 1018.15 1017.94 1017.74 1017.57 1017.44 1017.38 1017.38
1012.87 1013.13 1013.42 1013.74 1014.08 1014.45 1014.82 1015.21 1015.62 1016.04 1016.47 1016.91 1017.36 1017.79 1018.19 1018.56 1018.86 1019.10 1019.27 1019.37 1019.42 1019.43 1019.41 1019.37 1019.33 1019.28 1019.24 1019.20 1019.16 1019.11 1019.05 1018.97 1018.86 1018.72 1018.56 1018.36 1018.15 1017.92 1017.69 1017.48 1017.29 1017.14 1017.05
1013.03 1013.27 1013.55 1013.86 1014.20 1014.54 1014.90 1015.25 1015.60 1015.96 1016.34 1016.75 1017.19 1017.65 1018.13 1018.59 1019.03 1019.42 1019.73 1019.97 1020.12 1020.19 1020.19 1020.13 1020.02 1019.89 1019.75 1019.60 1019.45 1019.31 1019.18 1019.05 1018.92 1018.78 1018.63 1018.45 1018.25 1018.02 1017.77 1017.51 1017.25 1017.01 1016.80
1013.18 1013.40 1013.67 1013.98 1014.31 1014.64 1014.95 1015.24 1015.52 1015.79 1016.09 1016.44 1016.84 1017.31 1017.84 1018.40 1018.98 1019.52 1020.01 1020.40 1020.69 1020.86 1020.92 1020.87 1020.74 1020.55 1020.32 1020.07 1019.83 1019.61 1019.42 1019.25 1019.10 1018.96 1018.82 1018.67 1018.48 1018.26 1018.00 1017.69 1017.37 1017.03 1016.70
1013.36 1013.56 1013.83 1014.14 1014.46 1014.76 1015.03 1015.25 1015.44 1015.61 1015.80 1016.05 1016.40 1016.84 1017.39 1018.03 1018.72 1019.42 1020.07 1020.64 1021.09 1021.39 1021.54 1021.54 1021.42 1021.20 1020.92 1020.61 1020.31 1020.03 1019.78 1019.58 1019.43 1019.30 1019.17 1019.04 1018.88 1018.66 1018.38 1018.05 1017.65 1017.23 1016.79
1013.59 1013.78 1014.05 1014.35 1014.66 1014.94 1015.16 1015.31 1015.40 1015.46 1015.53 1015.68 1015.93 1016.33 1016.87 1017.54 1018.32 1019.13 1019.94 1020.66 1021.26 1021.71 1021.97 1022.06 1021.99 1021.79 1021.51 1021.19 1020.85 1020.54 1020.27 1020.06 1019.90 1019.78 1019.68 1019.56 1019.41 1019.20 1018.92 1018.55 1018.10 1017.61 1017.08
1013.87 1014.05 1014.30 1014.60 1014.89 1015.14 1015.31 1015.40 1015.40 1015.36 1015.33 1015.37 1015.53 1015.85 1016.35 1017.03 1017.84 1018.73 1019.64 1020.49 1021.22 1021.80 1022.19 1022.38 1022.40 1022.27 1022.04 1021.74 1021.42 1021.12 1020.86 1020.65 1020.50 1020.39 1020.30 1020.19 1020.05 1019.85 1019.56 1019.17 1018.70 1018.16 1017.58
1014.17 1014.33 1014.56 1014.84 1015.11 1015.33 1015.47 1015.51 1015.46 1015.34 1015.22 1015.17 1015.24 1015.49 1015.93 1016.57 1017.37 1018.29 1019.24 1020.17 1021.00 1021.68 1022.19 1022.50 1022.63 1022.60 1022.45 1022.22 1021.96 1021.71 1021.48 1021.30 1021.16 1021.06 1020.98 1020.89 1020.76 1020.56 1020.27 1019.88 1019.40 1018.85 1018.24
1014.46 1014.59 1014.80 1015.04 1015.29 1015.49 1015.61 1015.62 1015.53 1015.38 1015.22 1015.11 1015.12 1015.29 1015.67 1016.25 1017.00 1017.89 1018.84 1019.78 1020.66 1021.41 1022.00 1022.42 1022.66 1022.75 1022.72 1022.59 1022.43 1022.24 1022.07 1021.93 1021.83 1021.75 1021.68 1021.59 1021.47 1021.28 1021.01 1020.64 1020.17 1019.64 1019.05
1014.74 1014.83 1014.99 1015.20 1015.42 1015.59 1015.70 1015.71 1015.63 1015.48 1015.31 1015.18 1015.16 1015.29 1015.60 1016.11 1016.79 1017.60 1018.50 1019.41 1020.28 1021.06 1021.71 1022.20 1022.55 1022.75 1022.84 1022.84 1022.78 1022.69 1022.60 1022.51 1022.44 1022.38 1022.33 1022.26 1022.15 1021.98 1021.73 1021.40 1020.98 1020.49 1019.95
1015.00 1015.05 1015.16 1015.32 1015.50 1015.65 1015.76 1015.78 1015.73 1015.62 1015.49 1015.39 1015.37 1015.48 1015.74 1016.18 1016.77 1017.49 1018.30 1019.13 1019.95 1020.71 1021.37 1021.92 1022.34 1022.64 1022.84 1022.96 1023.01 1023.02 1023.01 1022.98 1022.96 1022.93 1022.90 1022.85 1022.76 1022.62 1022.41 1022.13 1021.78 1021.36 1020.90
1015.26 1015.27 1015.34 1015.44 1015.58 1015.71 1015.81 1015.86 1015.85 1015.80 1015.74 1015.69 1015.71 1015.83 1016.07 1016.45 1016.96 1017.58 1018.28 1019.01 1019.74 1020.44 1021.08 1021.64 1022.11 1022.49 1022.78 1022.99 1023.14 1023.24 1023.30 1023.34 1023.36 1023.37 1023.36 1023.33 1023.28 1023.18 1023.03 1022.81 1022.54 1022.21 1021.84
1015.55 1015.53 1015.55 1015.61 1015.70 1015.80 1015.90 1015.97 1016.01 1016.03 1016.04 1016.07 1016.15 1016.30 1016.54 1016.89 1017.33 1017.85 1018.44 1019.06 1019.69 1020.31 1020.90 1021.44 1021.92 1022.34 1022.69 1022.98 1023.20 1023.37 1023.50 1023.59 1023.65 1023.69 1023.71 1023.72 1023.69 1023.64 1023.55 1023.41 1023.22 1022.99 1022.71
1015.88 1015.85 1015.84 1015.85 1015.90 1015.97 1016.05 1016.13 1016.21 1016.29 1016.37 1016.48 1016.63 1016.82 1017.09 1017.41 1017.81 1018.26 1018.75 1019.27 1019.80 1020.34 1020.86 1021.36 1021.82 1022.25 1022.62 1022.95 1023.22 1023.44 1023.61 1023.74 1023.83 1023.90 1023.95 1023.98 1024.00 1024.00 1023.97 1023.90 1023.80 1023.65 1023.47
1016.24 1016.22 1016.19 1016.17 1016.18 1016.21 1016.27 1016.35 1016.45 1016.57 1016.71 1016.89 1017.09 1017.34 1017.64 1017.97 1018.34 1018.74 1019.16 1019.60 1020.05 1020.50 1020.95 1021.39 1021.82 1022.23 1022.61 1022.94 1023.23 1023.47 1023.66 1023.81 1023.92 1024.01 1024.08 1024.14 1024.19 1024.23 1024.26 1024.26 1024.23 1024.16 1024.06
1016.60 1016.61 1016.58 1016.55 1016.53 1016.54 1016.56 1016.63 1016.72 1016.86 1017.04 1017.25 1017.51 1017.81 1018.14 1018.49 1018.86 1019.23 1019.62 1020.00 1020.38 1020.76 1021.15 1021.54 1021.92 1022.29 1022.64 1022.96 1023.24 1023.47 1023.66 1023.82 1023.93 1024.03 1024.12 1024.20 1024.28 1024.35 1024.42 1024.47 1024.49 1024.49 1024.45
1016.93 1016.98 1016.98 1016.96 1016.93 1016.90 1016.90 1016.93 1017.01 1017.14 1017.33 1017.58 1017.87 1018.20 1018.57 1018.95 1019.33 1019.70 1020.06 1020.41 1020.75 1021.08 1021.41 1021.74 1022.07 1022.39 1022.70 1022.99 1023.24 1023.46 1023.64 1023.78 1023.89 1023.99 1024.08 1024.17 1024.26 1024.36 1024.45 1024.53 1024.60 1024.63 1024.64
1017.19 1017.30 1017.34 1017.34 1017.31 1017.28 1017.25 1017.26 1017.31 1017.43 1017.61 1017.86 1018.17 1018.53 1018.92 1019.32 1019.73 1020.11 1020.47 1020.80 1021.11 1021.40 1021.68 1021.96 1022.24 1022.51 1022.78 1023.02 1023.24 1023.43 1023.59 1023.72 1023.82 1023.91 1023.99 1024.08 1024.17 1024.27 1024.38 1024.47 1024.55 1024.62 1024.65
1017.34 1017.53 1017.63 1017.67 1017.67 1017.63 1017.60 1017.59 1017.62 1017.72 1017.89 1018.13 1018.45 1018.82 1019.23 1019.65 1020.07 1020.47 1020.83 1021.15 1021.44 1021.70 1021.94 1022.17 1022.40 1022.63 1022.85 1023.05 1023.24 1023.40 1023.54 1023.65 1023.74 1023.82 1023.89 1023.97 1024.05 1024.14 1024.23 1024.33 1024.41 1024.47 1024.51
1017.41 1017.67 1017.84 1017.94 1017.98 1017.98 1017.95 1017.94 1017.96 1018.04 1018.20 1018.44 1018.75 1019.12 1019.54 1019.97 1020.40 1020.80 1021.15 1021.46 1021.73 1021.96 1022.16 1022.35 1022.54 1022.72 1022.90 1023.07 1023.23 1023.38 1023.50 1023.60 1023.68 1023.75 1023.81 1023.87 1023.93 1024.00 1024.07 1024.14 1024.20 1024.25 1024.29
1017.42 1017.75 1018.00 1018.17 1018.27 1018.31 1018.32 1018.32 1018.35 1018.43 1018.58 1018.80 1019.11 1019.48 1019.89 1020.32 1020.74 1021.13 1021.47 1021.76 1022.00 1022.19 1022.36 1022.50 1022.65 1022.79 1022.93 1023.08 1023.23 1023.36 1023.48 1023.58 1023.66 1023.72 1023.77 1023.81 1023.85 1023.89 1023.92 1023.96 1023.99 1024.01 1024.02
Thickness
5787 5786 5784 5783 5784 5784 5784 5783 5784 5781 5780 5781 5780 5780 5780 5779 5779 5778 5774 5769 5767 5765 5764 5762 5761 5759 5758 5756 5755 5754 5752 5751 5750 5748 5747 5746 5744 5743 5742 5741 5740 5739 5737
5785 5783 5782 5781 5782 5782 5781 5781 5780 5778 5778 5777 5776 5776 5775 5775 5774 5774 5773 5769 5766 5764 5762 5761 5760 5759 5758 5756 5755 5753 5751 5750 5748 5746 5745 5744 5743 5742 5740 5740 5739 5737 5736
5782 5781 5781 5780 5779 5779 5777 5777 5777 5776 5774 5774 5773 5772 5772 5772 5772 5771 5771 5770 5768 5764 5762 5760 5759 5758 5757 5755 5754 5752 5750 5748 5747 5745 5744 5743 5741 5740 5739 5738 5737 5736 5735
5781 5780 5779 5778 5777 5777 5776 5775 5775 5773 5771 5770 5769 5770 5769 5768 5768 5768 5769 5769 5768 5766 5762 5759 5758 5757 5755 5754 5752 5750 5749 5747 5745 5744 5742 5741 5739 5738 5737 5736 5735 5734 5733
5779 5779 5778 5776 5775 5775 5774 5773 5772 5770 5767 5765 5766 5766 5767 5766 5766 5767 5766 5767 5766 5764 5763 5759 5757 5755 5754 5752 5750 5749 5747 5745 5744 5742 5741 5739 5738 5736 5735 5734 5733 5732 5731
5778 5777 5776 5774 5774 5772 5770 5769 5766 5765 5764 5764 5765 5764 5764 5765 5765 5764 5764 5764 5764 5763 5763 5761 5758 5755 5752 5750 5748 5746 5745 5743 5741 5740 5738 5737 5736 5734 5733 5732 5731 5730 5730
5776 5774 5774 5771 5771 5769 5767 5767 5765 5763 5762 5762 5760 5759 5762 5764 5763 5762 5762 5762 5762 5761 5760 5758 5757 5756 5752 5748 5746 5744 5742 5740 5738 5737 5736 5734 5733 5732 5732 5731 5729 5729 5729
5773 5773 5770 5770 5768 5766 5764 5762 5761 5760 5761 5761 5758 5755 5753 5754 5757 5762 5760 5759 5759 5759 5758 5757 5755 5753 5752 5750 5745 5742 5739 5737 5736 5735 5733 5732 5731 5730 5730 5729 5728 5727 5727
5772 5770 5768 5767 5765 5765 5762 5760 5759 5757 5756 5758 5759 5756 5751 5747 5751 5756 5756 5756 5755 5755 5755 5755 5753 5751 5749 5747 5744 5739 5737 5735 5734 5732 5731 5730 5729 5728 5728 5727 5727 5726 5726
5769 5768 5766 5765 5763 5763 5760 5760 5759 5758 5755 5755 5756 5756 5755 5753 5749 5746 5750 5753 5752 5751 5751 5752 5751 5749 5746 5744 5740 5737 5734 5732 5731 5729 5728 5727 5726 5726 5726 5726 5725 5725 5724
5766 5765 5763 5762 5760 5760 5758 5756 5755 5755 5755 5754 5753 5753 5752 5751 5751 5746 5742 5744 5747 5748 5748 5747 5747 5746 5744 5741 5738 5735 5732 5729 5728 5726 5725 5724 5724 5723 5724 5724 5723 5723 5722
5764 5762 5760 5759 5758 5757 5755 5754 5753 5753 5752 5751 5751 5752 5750 5748 5747 5745 5741 5739 5740 5743 5744 5744 5743 5742 5741 5738 5735 5731 5728 5726 5725 5723 5722 5721 5720 5720 5720 5720 5720 5719 5719
5760 5757 5757 5755 5754 5753 5752 5751 5750 5750 5750 5748 5747 5748 5749 5748 5748 5746 5742 5740 5737 5739 5740 5741 5740 5738 5737 5735 5731 5727 5725 5723 5721 5720 5718 5717 5716 5716 5716 5716 5716 5716 5715
5756 5754 5752 5751 5750 5749 5749 5748 5749 5747 5746 5745 5745 5744 5745 5746 5746 5745 5742 5739 5735 5735 5736 5735 5736 5735 5733 5731 5727 5724 5722 5720 5718 5716 5714 5713 5712 5711 5712 5712 5712 5711 5710
5753 5750 5748 5747 5745 5744 5743 5743 5743 5742 5742 5742 5743 5741 5741 5742 5742 5742 5741 5739 5733 5729 5730 5731 5730 5730 5728 5726 5723 5721 5719 5716 5714 5712 5710 5709 5708 5707 5707 5706 5706 5705 5704
5748 5746 5744 5743 5741 5740 5739 5738 5739 5738 5737 5737 5737 5735 5734 5738 5737 5736 5736 5735 5734 5730 5726 5727 5726 5726 5723 5723 5719 5718 5716 5713 5711 5709 5707 5705 5704 5703 5702 5701 5700 5699 5698
5743 5741 5739 5738 5736 5735 5735 5733 5734 5733 5732 5732 5731 5731 5729 5729 5730 5731 5731 5729 5728 5726 5720 5721 5722 5721 5717 5715 5715 5714 5714 5712 5710 5705 5703 5701 5699 5698 5697 5696 5694 5693 5692
5738 5736 5735 5733 5731 5730 5729 5728 5727 5727 5726 5725 5724 5723 5722 5723 5721 5722 5722 5721 5720 5719 5716 5712 5714 5713 5711 5711 5710 5709 5710 5710 5707 5702 5699 5697 5695 5693 5692 5690 5689 5688 5686
5734 5732 5729 5728 5726 5725 5723 5722 5721 5720 5719 5719 5718 5716 5716 5715 5713 5714 5713 5714 5714 5714 5712 5709 5708 5708 5707 5706 5704 5704 5705 5703 5703 5700 5696 5693 5690 5688 5687 5685 5683 5682 5680
5729 5727 5724 5723 5721 5719 5718 5716 5715 5713 5712 5712 5711 5710 5709 5708 5707 5706 5706 5705 5706 5706 5705 5704 5704 5703 5702 5701 5699 5699 5699 5698 5698 5698 5693 5691 5687 5684 5682 5680 5678 5676 5674
5725 5722 5720 5718 5716 5715 5713 5710 5708 5707 5705 5704 5703 5703 5702 5700 5698 5697 5699 5699 5698 5698 5699 5699 5699 5697 5696 5693 5693 5695 5693 5693 5692 5692 5690 5688 5686 5683 5680 5676 5673 5671 5669
5719 5716 5714 5712 5710 5709 5704 5701 5700 5700 5699 5697 5696 5696 5696 5693 5691 5689 5688 5687 5688 5689 5690 5690 5691 5689 5686 5687 5686 5687 5686 5685 5684 5686 5683 5683 5683 5680 5678 5675 5671 5667 5664
5713 5710 5707 5705 5702 5699 5695 5693 5692 5693 5692 5691 5689 5688 5689 5689 5685 5683 5682 5680 5680 5679 5679 5680 5681 5679 5679 5679 5677 5678 5676 5676 5676 5678 5675 5675 5676 5675 5674 5671 5666 5662 5659
5707 5703 5700 5698 5695 5692 5687 5685 5684 5685 5685 5683 5682 5681 5680 5678 5677 5674 5674 5675 5675 5675 5673 5673 5672 5672 5672 5671 5669 5669 5668 5669 5670 5671 5669 5668 5670 5669 5670 5666 5660 5657 5654
5700 5696 5693 5690 5687 5684 5679 5677 5676 5679 5678 5677 5676 5674 5672 5670 5665 5663 5665 5665 5666 5667 5666 5665 5663 5662 5661 5660 5660 5662 5662 5663 5663 5665 5663 5661 5663 5663 5663 5661 5656 5652 5649
5692 5689 5686 5683 5680 5677 5672 5670 5668 5673 5671 5670 5669 5668 5663 5660 5656 5654 5656 5657 5656 5658 5659 5660 5657 5656 5656 5656 5653 5653 5655 5655 5655 5656 5657 5654 5655 5654 5653 5655 5653 5648 5644